Date String (YYYY-MM-DD hh:mm:ss) UTC,Instrument flags,Ambient pressure (hPa),Sample flow (lpm),Bypass flow (lpm),Sample temperature (°C),Ambient temperature (°C),ASC tube jacket temperature (°C),LED temperature (°C),Box temperature (°C),Sample RH (%),Span deviation,Mass concentration (μg/m³),Mass concentration (μg/m³),Mass concentration (μg/m³)
DateTimeUTC,F1_M11,P_M11,Q1_M11,Q2_M11,T1_M11,T2_M11,T3_M11,T4_M11,T5_M11,U1_M11,ZSPAN_M11,X2_M11,X0_M11,X1_M11
2023-02-28 05:00:00,,0815.3,4.99,0.00,21.9,20.3,00.0,30.7,23.5,08.8,0000.0,0001.52,0004.80,0000.80
2023-02-28 05:01:00,,0815.3,5.00,0.00,21.9,20.2,00.0,30.7,23.5,08.8,0000.0,0001.55,0004.80,0000.81
2023-02-28 05:02:00,,0815.2,5.00,0.00,21.8,20.2,00.0,30.7,23.4,08.8,0000.0,0001.54,0005.52,0000.82
2023-02-28 05:03:00,,0815.3,4.99,0.00,21.8,20.1,00.0,30.6,23.4,08.8,0000.0,0001.57,0006.17,0000.83
2023-02-28 05:04:00,,0815.4,5.00,0.00,21.8,20.1,00.0,30.6,23.4,08.9,0000.0,0001.52,0005.99,0000.83
2023-02-28 05:05:00,,0815.4,5.01,0.00,21.8,20.1,00.0,30.6,23.4,09.1,0000.0,0001.52,0005.87,0000.84
2023-02-28 05:06:00,,0815.2,5.00,0.00,21.8,20.1,00.0,30.6,23.4,09.2,0000.0,0001.49,0005.26,0000.84
2023-02-28 05:07:00,,0815.1,5.01,0.00,21.7,20.2,00.0,30.6,23.4,09.5,0000.0,0001.50,0005.47,0000.84
2023-02-28 05:08:00,,0815.1,5.00,0.00,21.8,21.3,00.0,30.6,23.7,09.4,0000.0,0001.48,0006.57,0000.86
2023-02-28 05:09:00,,0815.2,5.07,0.00,22.0,22.6,00.0,30.6,24.0,09.0,0000.0,0001.52,0006.70,0000.86
2023-02-28 05:10:00,,0815.2,5.00,0.00,22.1,23.0,00.0,30.7,24.2,08.9,0000.0,0001.55,0006.06,0000.87
2023-02-28 05:11:00,,0815.2,4.99,0.00,22.2,22.5,00.0,30.7,24.1,09.0,0000.0,0001.55,0005.96,0000.86
2023-02-28 05:12:00,,0815.2,5.00,0.00,22.2,22.1,00.0,30.7,24.1,08.9,0000.0,0001.58,0006.13,0000.85
2023-02-28 05:13:00,,0815.2,5.03,0.00,22.2,21.7,00.0,30.8,24.0,08.7,0000.0,0001.57,0005.29,0000.84
2023-02-28 05:14:00,,0815.2,5.00,0.00,22.2,21.4,00.0,30.8,24.0,08.6,0000.0,0001.56,0004.95,0000.85
2023-02-28 05:15:00,,0815.1,4.99,0.00,22.2,21.1,00.0,30.8,23.9,08.6,0000.0,0001.58,0005.12,0000.86
2023-02-28 05:16:00,,0815.2,4.99,0.00,22.1,20.9,00.0,30.8,23.9,08.7,0000.0,0001.62,0005.27,0000.87
2023-02-28 05:17:00,,0815.2,5.00,0.00,22.1,20.8,00.0,30.8,23.9,08.7,0000.0,0001.61,0005.97,0000.87
2023-02-28 05:18:00,,0815.1,5.00,0.00,22.1,20.7,00.0,30.8,23.8,08.8,0000.0,0001.56,0006.80,0000.87
2023-02-28 05:19:00,,0815.1,5.00,0.00,22.1,20.6,00.0,30.8,23.8,08.7,0000.0,0001.54,0005.60,0000.87
2023-02-28 05:20:00,,0815.1,5.00,0.00,22.1,20.5,00.0,30.8,23.8,08.8,0000.0,0001.53,0005.55,0000.87
2023-02-28 05:21:00,,0815.1,5.01,0.00,22.1,20.5,00.0,30.8,23.8,08.7,0000.0,0001.51,0005.49,0000.88
2023-02-28 05:22:00,,0815.1,5.01,0.00,22.0,20.4,00.0,30.8,23.7,08.7,0000.0,0001.54,0005.56,0000.88
2023-02-28 05:23:00,,0815.2,4.99,0.00,22.0,20.4,00.0,30.8,23.7,08.7,0000.0,0001.50,0005.41,0000.89
2023-02-28 05:24:00,,0815.0,5.00,0.00,22.0,20.4,00.0,30.8,23.7,08.7,0000.0,0001.46,0005.14,0000.90
2023-02-28 05:25:00,,0815.0,5.00,0.00,22.0,20.4,00.0,30.8,23.6,08.7,0000.0,0001.45,0004.69,0000.89
2023-02-28 05:26:00,,0815.0,5.01,0.00,22.0,20.3,00.0,30.8,23.7,08.7,0000.0,0001.49,0004.74,0000.89
2023-02-28 05:27:00,,0815.0,5.00,0.00,22.0,20.3,00.0,30.8,23.6,08.8,0000.0,0001.45,0004.56,0000.88
2023-02-28 05:28:00,,0815.0,5.00,0.00,21.9,20.3,00.0,30.8,23.6,08.9,0000.0,0001.45,0003.84,0000.87
2023-02-28 05:29:00,,0815.0,5.01,0.00,21.9,20.3,00.0,30.7,23.6,08.8,0000.0,0001.47,0002.86,0000.87
2023-02-28 05:30:00,,0815.0,5.01,0.00,21.9,20.4,00.0,30.7,23.6,08.9,0000.0,0001.54,0002.95,0000.89
2023-02-28 05:31:00,,0815.0,4.98,0.00,22.0,21.4,00.0,30.7,23.9,08.9,0000.0,0001.57,0003.04,0000.89
2023-02-28 05:32:00,,0815.0,4.99,0.00,22.1,22.6,00.0,30.7,24.2,08.8,0000.0,0001.59,0004.44,0000.89
2023-02-28 05:33:00,,0815.1,4.97,0.00,22.2,23.0,00.0,30.8,24.3,08.7,0000.0,0001.53,0004.33,0000.89
2023-02-28 05:34:00,,0815.1,4.99,0.00,22.3,22.4,00.0,30.8,24.2,08.6,0000.0,0001.50,0004.21,0000.90
2023-02-28 05:35:00,,0814.9,4.99,0.00,22.3,21.9,00.0,30.8,24.1,08.6,0000.0,0001.51,0004.23,0000.89
2023-02-28 05:36:00,,0815.0,4.97,0.00,22.3,21.5,00.0,30.9,24.1,08.6,0000.0,0001.53,0004.27,0000.89
2023-02-28 05:37:00,,0814.9,5.00,0.00,22.2,21.3,00.0,30.9,24.0,08.7,0000.0,0001.49,0004.16,0000.89
2023-02-28 05:38:00,,0814.8,5.00,0.00,22.2,21.0,00.0,30.9,24.0,08.7,0000.0,0001.51,0004.38,0000.89
2023-02-28 05:39:00,,0815.0,5.00,0.00,22.2,20.9,00.0,30.9,24.0,08.7,0000.0,0001.54,0004.51,0000.89
2023-02-28 05:40:00,,0814.9,5.01,0.00,22.2,20.8,00.0,30.9,23.9,08.7,0000.0,0001.63,0004.85,0000.89
2023-02-28 05:41:00,,0814.7,5.01,0.00,22.2,20.7,00.0,30.9,23.9,08.6,0000.0,0001.59,0004.82,0000.88
2023-02-28 05:42:00,,0814.7,5.01,0.00,22.2,20.6,00.0,30.9,23.9,08.6,0000.0,0001.58,0004.85,0000.87
2023-02-28 05:43:00,,0814.9,5.00,0.00,22.1,20.5,00.0,30.9,23.8,08.6,0000.0,0001.56,0003.63,0000.87
2023-02-28 05:44:00,,0814.8,5.01,0.00,22.1,20.5,00.0,30.9,23.8,08.6,0000.0,0001.59,0003.51,0000.87
2023-02-28 05:45:00,,0815.0,5.01,0.00,22.1,20.4,00.0,30.9,23.8,08.6,0000.0,0001.61,0003.59,0000.87
2023-02-28 05:46:00,,0815.1,5.00,0.00,22.1,20.4,00.0,30.9,23.7,08.6,0000.0,0001.58,0003.51,0000.86
2023-02-28 05:47:00,,0814.8,4.99,0.00,22.0,20.4,00.0,30.9,23.7,08.8,0000.0,0001.57,0003.74,0000.85
2023-02-28 05:48:00,,0814.9,5.00,0.00,22.0,20.4,00.0,30.8,23.7,09.0,0000.0,0001.58,0004.80,0000.85
2023-02-28 05:49:00,,0814.9,5.01,0.00,22.0,20.3,00.0,30.8,23.7,08.9,0000.0,0001.54,0004.68,0000.84
2023-02-28 05:50:00,,0814.8,4.99,0.00,22.0,20.3,00.0,30.8,23.7,08.9,0000.0,0001.48,0004.48,0000.83
2023-02-28 05:51:00,,0814.9,5.00,0.00,22.0,20.6,00.0,30.8,23.7,08.8,0000.0,0001.40,0004.16,0000.82
2023-02-28 05:52:00,,0814.9,4.98,0.00,22.1,21.8,00.0,30.8,24.0,08.8,0000.0,0001.36,0003.99,0000.81
2023-02-28 05:53:00,,0814.9,4.99,0.00,22.2,22.9,00.0,30.8,24.3,08.8,0000.0,0001.35,0003.89,0000.81
2023-02-28 05:54:00,,0814.9,5.02,0.00,22.3,22.9,00.0,30.9,24.3,08.8,0000.0,0001.34,0003.92,0000.81
2023-02-28 05:55:00,,0814.9,5.00,0.00,22.3,22.4,00.0,30.9,24.3,08.7,0000.0,0001.32,0004.79,0000.80
2023-02-28 05:56:00,,0814.8,4.99,0.00,22.3,21.9,00.0,30.9,24.2,08.7,0000.0,0001.32,0004.86,0000.80
2023-02-28 05:57:00,,0814.8,5.00,0.00,22.3,21.5,00.0,31.0,24.1,08.7,0000.0,0001.33,0004.90,0000.81
2023-02-28 05:58:00,,0814.8,4.99,0.00,22.3,21.2,00.0,31.0,24.1,08.7,0000.0,0001.31,0004.70,0000.81
2023-02-28 05:59:00,,0814.8,5.00,0.00,22.3,21.0,00.0,31.0,24.0,08.7,0000.0,0001.31,0003.66,0000.82
